EW0415 Weather Reports


Display with metric or nautical units.
time (UTC)temp
F
wind
direction
speed
MPH
gust
MPH
rain 1hr
in
rain 24hr
in
rain mn
in
humidity
%
barometer
mb
20260901035519 71 321 2.0 13.0 0.00 0.00 0.00 53 1016.8
20260901035018 71 324 3.0 13.0 0.00 0.00 0.00 53 1017.0
20260901034534 71 337 3.0 13.0 0.00 0.00 0.00 52 1016.9
20260901034016 71 304 2.0 10.0 0.00 0.00 0.00 52 1016.9
20260901033518 71 336 2.0 10.0 0.00 0.00 0.00 52 1017.1
20260901033036 71 345 4.0 10.0 0.00 0.00 0.00 51 1017.1
20260901032518 71 329 2.0 11.0 0.00 0.00 0.00 52 1017.2
20260901032018 71 15 2.0 11.0 0.00 0.00 0.00 51 1017.3
20260901031535 71 63 4.0 14.0 0.00 0.00 0.00 50 1017.8
20260901031016 72 335 3.0 14.0 0.00 0.00 0.00 49 1017.6
20260901030518 72 311 2.0 10.0 0.00 0.00 0.00 49 1018.0
20260901030042 73 303 3.0 10.0 0.00 0.00 0.00 49 1018.0
20260901025518 73 10 4.0 11.0 0.00 0.00 0.00 49 1017.9
20260901025016 72 298 3.0 12.0 0.00 0.00 0.00 50 1017.9
20260901024537 72 24 4.0 12.0 0.00 0.00 0.00 49 1017.9
20260901024020 71 346 5.0 10.0 0.00 0.00 0.00 50 1017.9
20260901023518 71 15 4.0 10.0 0.00 0.00 0.00 50 1018.0
20260901023037 70 94 3.0 9.0 0.00 0.00 0.00 51 1018.0
20260901022515 69 345 3.0 9.0 0.00 0.00 0.00 53 1018.4
20260901022020 69 296 3.0 9.0 0.00 0.00 0.00 53 1018.5
20260901021531 68 332 3.0 8.0 0.00 0.00 0.00 54 1018.7
20260901021019 68 316 2.0 8.0 0.00 0.00 0.00 54 1018.7
20260901020517 67 327 2.0 8.0 0.00 0.00 0.00 54 1018.7
20260901020035 67 333 2.0 6.0 0.00 0.00 0.00 55 1018.9
20260901015518 67 306 2.0 8.0 0.00 0.00 0.00 55 1018.8
20260901015018 67 323 3.0 12.0 0.00 0.00 0.00 55 1018.9
20260901014539 67 0 2.0 12.0 0.00 0.00 0.00 55 1018.8
20260901014015 67 341 2.0 12.0 0.00 0.00 0.00 56 1018.8
20260901013515 67 334 3.0 10.0 0.00 0.00 0.00 56 1018.6
20260901013036 67 11 3.0 11.0 0.00 0.00 0.00 56 1018.6
20260901012526 67 12 4.0 11.0 0.00 0.00 0.00 56 1019.0
20260901012023 67 28 3.0 11.0 0.00 0.00 0.00 57 1019.3
20260901011534 67 338 2.0 11.0 0.00 0.00 0.00 54 1019.3
20260901011017 67 330 2.0 8.0 0.00 0.00 0.00 54 1019.3
20260901010516 67 331 3.0 11.0 0.00 0.00 0.00 53 1019.3
20260901010035 67 97 4.0 11.0 0.00 0.00 0.00 54 1019.2
20260901005520 67 319 3.0 12.0 0.00 0.00 0.00 53 1019.4
20260901005019 67 333 2.0 12.0 0.00 0.00 0.00 53 1019.4
20260901004540 67 321 2.0 12.0 0.00 0.00 0.00 53 1019.4
20260901004018 67 294 3.0 12.0 0.00 0.00 0.00 53 1019.4
20260901003516 68 324 4.0 11.0 0.00 0.00 0.00 52 1019.5
20260901003038 68 332 4.0 11.0 0.00 0.00 0.00 51 1019.4
20260901002515 68 68 3.0 9.0 0.00 0.00 0.00 52 1019.4
20260901002015 68 360 2.0 12.0 0.00 0.00 0.00 53 1019.4
20260901001533 68 323 2.0 12.0 0.00 0.00 0.00 52 1019.4
20260901001021 68 40 3.0 9.0 0.00 0.00 0.00 52 1019.5
20260901000521 68 340 3.0 9.0 0.00 0.00 0.00 52 1019.5
20260901000034 67 325 2.0 9.0 0.00 0.00 0.00 52 1019.7
20260831235516 67 28 4.0 10.0 0.00 0.00 0.00 53 1019.8
20260831235016 66 41 3.0 10.0 0.00 0.00 0.00 54 1019.9
20260831234533 66 350 3.0 10.0 0.00 0.00 0.00 54 1019.7
20260831234018 65 352 3.0 11.0 0.00 0.00 0.00 54 1019.8
20260831233515 65 259 3.0 11.0 0.00 0.00 0.00 54 1019.9
20260831233032 65 52 3.0 8.0 0.00 0.00 0.00 54 1019.9
20260831232515 65 152 3.0 8.0 0.00 0.00 0.00 53 1019.8
20260831232015 65 21 2.0 8.0 0.00 0.00 0.00 53 1019.9
20260831231534 65 9 2.0 11.0 0.00 0.00 0.00 53 1019.7
20260831231020 64 360 3.0 11.0 0.00 0.00 0.00 53 1019.9
20260831230519 64 238 4.0 11.0 0.00 0.00 0.00 53 1019.8
20260831230037 64 319 3.0 10.0 0.00 0.00 0.00 54 1019.9
20260831225521 64 65 4.0 13.0 0.00 0.00 0.00 54 1019.8
20260831225016 64 346 4.0 13.0 0.00 0.00 0.00 54 1019.8
20260831224533 63 360 5.0 11.0 0.00 0.00 0.00 54 1019.7
20260831224018 63 360 3.0 11.0 0.00 0.00 0.00 55 1019.6
20260831223519 63 28 3.0 11.0 0.00 0.00 0.00 55 1019.6
20260831223035 63 34 4.0 12.0 0.00 0.00 0.00 55 1019.8
20260831222517 63 11 5.0 14.0 0.00 0.00 0.00 55 1020.0
20260831222016 63 340 4.0 14.0 0.00 0.00 0.00 56 1020.1
20260831221536 62 11 3.0 9.0 0.00 0.00 0.00 56 1020.1
20260831221015 62 330 2.0 8.0 0.00 0.00 0.00 57 1020.1
20260831220515 62 342 3.0 9.0 0.00 0.00 0.00 58 1020.2
20260831220035 61 5 3.0 9.0 0.00 0.00 0.00 59 1020.2
20260831215516 60 346 2.0 9.0 0.00 0.00 0.00 60 1020.2
20260831215022 60 355 2.0 9.0 0.00 0.00 0.00 60 1020.1
20260831214559 59 343 2.0 8.0 0.00 0.00 0.00 60 1020.2
20260831214019 59 360 2.0 8.0 0.00 0.00 0.00 60 1020.0
20260831213520 59 355 2.0 8.0 0.00 0.00 0.00 60 1020.1
20260831213033 59 355 3.0 8.0 0.00 0.00 0.00 61 1020.0
20260831212519 59 349 2.0 8.0 0.00 0.00 0.00 61 1020.2
20260831212016 59 345 2.0 8.0 0.00 0.00 0.00 61 1020.1
20260831211534 58 347 3.0 8.0 0.00 0.00 0.00 61 1020.0
20260831211018 58 9 2.0 7.0 0.00 0.00 0.00 61 1020.0
20260831210515 58 5 2.0 7.0 0.00 0.00 0.00 61 1020.1
20260831210031 58 9 2.0 7.0 0.00 0.00 0.00 61 1020.1
20260831205515 58 360 2.0 7.0 0.00 0.00 0.00 62 1020.1
20260831205021 58 355 2.0 7.0 0.00 0.00 0.00 62 1020.1
20260831204533 58 9 1.0 5.0 0.00 0.00 0.00 62 1020.2
20260831204018 58 360 1.0 8.0 0.00 0.00 0.00 62 1020.3
20260831203519 58 0 2.0 8.0 0.00 0.00 0.00 62 1020.3
20260831203031 58 355 1.0 5.0 0.00 0.00 0.00 62 1020.3
20260831202518 58 360 2.0 5.0 0.00 0.00 0.00 61 1020.3
20260831202022 58 360 1.0 5.0 0.00 0.00 0.00 61 1020.3
20260831201537 58 360 1.0 4.0 0.00 0.00 0.00 61 1020.3
20260831201016 58 360 1.0 4.0 0.00 0.00 0.00 61 1020.4
20260831200517 58 360 1.0 5.0 0.00 0.00 0.00 61 1020.4
20260831200041 58 360 1.0 5.0 0.00 0.00 0.00 60 1020.5
20260831195519 58 355 1.0 5.0 0.00 0.00 0.00 60 1020.5
20260831195019 59 355 2.0 6.0 0.00 0.00 0.00 60 1020.5
20260831194534 59 355 3.0 8.0 0.00 0.00 0.00 60 1020.6
20260831194017 59 9 2.0 8.0 0.00 0.00 0.00 60 1020.5
20260831193518 59 9 2.0 9.0 0.00 0.00 0.00 60 1020.5
20260831193036 59 355 2.0 9.0 0.00 0.00 0.00 60 1020.6
20260831192515 58 355 2.0 8.0 0.00 0.00 0.00 60 1020.6
20260831192017 59 352 2.0 5.0 0.00 0.00 0.00 60 1020.6
20260831191535 59 348 2.0 6.0 0.00 0.00 0.00 60 1020.7
20260831191019 59 348 3.0 8.0 0.00 0.00 0.00 59 1020.6
20260831190519 59 342 2.0 8.0 0.00 0.00 0.00 59 1020.7
20260831190053 59 340 2.0 8.0 0.00 0.00 0.00 59 1020.7
20260831185516 59 334 1.0 10.0 0.00 0.00 0.00 59 1020.9
20260831185016 59 340 2.0 10.0 0.00 0.00 0.00 59 1020.9
20260831184532 59 333 3.0 10.0 0.00 0.00 0.00 58 1020.9
20260831184015 59 346 2.0 10.0 0.00 0.00 0.00 58 1020.9
20260831183515 59 15 2.0 10.0 0.00 0.00 0.00 58 1021.0
20260831183049 59 350 4.0 8.0 0.00 0.00 0.00 58 1021.2
20260831182522 59 343 2.0 8.0 0.00 0.00 0.00 58 1021.3
20260831182019 59 9 3.0 7.0 0.00 0.00 0.00 58 1021.5
20260831181535 59 9 2.0 8.0 0.00 0.00 0.00 58 1021.5
20260831181017 59 355 2.0 8.0 0.00 0.00 0.00 58 1021.6
20260831180517 59 352 3.0 8.0 0.00 0.00 0.00 57 1021.6
20260831180035 59 355 2.0 8.0 0.00 0.00 0.00 57 1021.7
20260831175517 59 13 4.0 8.0 0.00 0.00 0.00 57 1021.7
20260831175017 59 9 2.0 9.0 0.00 0.00 0.00 57 1021.6
20260831174531 59 11 3.0 9.0 0.00 0.00 0.00 57 1021.8
20260831174018 60 17 2.0 8.0 0.00 0.00 0.00 57 1021.8
20260831173515 60 9 3.0 8.0 0.00 0.00 0.00 57 1021.9
20260831173034 60 352 2.0 8.0 0.00 0.00 0.00 56 1022.0
20260831172520 60 348 3.0 7.0 0.00 0.00 0.00 56 1022.1
20260831172019 60 344 2.0 10.0 0.00 0.00 0.00 56 1022.2
20260831171537 60 23 2.0 10.0 0.00 0.00 0.00 56 1022.2
20260831171020 60 5 3.0 8.0 0.00 0.00 0.00 56 1022.3
20260831170517 60 0 2.0 8.0 0.00 0.00 0.00 56 1022.2
20260831170035 60 9 2.0 9.0 0.00 0.00 0.00 56 1022.5
20260831165515 60 11 2.0 9.0 0.00 0.00 0.00 56 1022.3
20260831165015 60 12 2.0 8.0 0.00 0.00 0.00 56 1022.3
20260831164533 60 14 3.0 8.0 0.00 0.00 0.00 56 1022.6
20260831164020 59 21 2.0 8.0 0.00 0.00 0.00 57 1022.6
20260831163521 59 24 1.0 5.0 0.00 0.00 0.00 57 1022.6
20260831163041 59 24 1.0 8.0 0.00 0.00 0.00 57 1022.5
20260831162519 59 26 2.0 8.0 0.00 0.00 0.00 58 1022.5
20260831162019 59 28 1.0 8.0 0.00 0.00 0.00 58 1022.8
20260831161535 59 36 1.0 5.0 0.00 0.00 0.00 58 1022.8
20260831161017 59 36 1.0 6.0 0.00 0.00 0.00 58 1022.9
20260831160516 59 37 2.0 6.0 0.00 0.00 0.00 58 1023.0
20260831160043 59 38 2.0 5.0 0.00 0.00 0.00 58 1023.1
20260831155519 59 0 0.0 4.0 0.00 0.00 0.00 58 1023.2
20260831155019 59 38 1.0 4.0 0.00 0.00 0.00 58 1023.2
20260831154612 59 38 1.0 4.0 0.00 0.00 0.00 58 1023.3
20260831154015 59 38 1.0 4.0 0.00 0.00 0.00 58 1023.4
20260831153516 59 38 1.0 3.0 0.00 0.00 0.00 58 1023.5
20260831153034 59 38 0.0 6.0 0.00 0.00 0.00 58 1023.6
20260831152521 59 38 1.0 6.0 0.00 0.00 0.00 58 1023.7
20260831152015 59 38 1.0 6.0 0.00 0.00 0.00 59 1023.7
20260831151537 58 44 1.0 4.0 0.00 0.00 0.00 59 1023.7
20260831151018 58 44 1.0 4.0 0.00 0.00 0.00 59 1023.6
20260831150521 58 44 1.0 4.0 0.00 0.00 0.00 60 1023.7
20260831150033 57 44 1.0 4.0 0.00 0.00 0.00 60 1023.9
20260831145520 57 0 1.0 5.0 0.00 0.00 0.00 61 1023.9
20260831145018 57 0 1.0 5.0 0.00 0.00 0.00 62 1023.9
20260831144533 56 46 1.0 4.0 0.00 0.00 0.00 63 1024.0
20260831144016 56 0 0.0 3.0 0.00 0.00 0.00 63 1024.0
20260831143516 55 46 0.0 2.0 0.00 0.00 0.00 63 1024.1
20260831143032 55 46 0.0 3.0 0.00 0.00 0.00 64 1024.3
20260831142517 55 0 0.0 3.0 0.00 0.00 0.00 64 1024.2
20260831142021 54 46 1.0 3.0 0.00 0.00 0.00 64 1024.3
20260831141535 54 46 0.0 3.0 0.00 0.00 0.00 63 1024.5
20260831141015 54 46 0.0 3.0 0.00 0.00 0.00 63 1024.4
20260831140519 54 0 0.0 2.0 0.00 0.00 0.00 62 1024.5
20260831140039 54 0 0.0 0.0 0.00 0.00 0.00 61 1024.7
20260831135516 55 0 0.0 0.0 0.00 0.00 0.00 60 1024.7
20260831135023 55 0 0.0 0.0 0.00 0.00 0.00 59 1024.8
20260831134533 56 0 0.0 0.0 0.00 0.00 0.00 59 1024.8
20260831134016 56 0 0.0 0.0 0.00 0.00 0.00 58 1025.1
20260831133518 57 0 0.0 0.0 0.00 0.00 0.00 57 1025.2
20260831133035 57 0 0.0 0.0 0.00 0.00 0.00 57 1025.3
20260831132515 58 0 0.0 0.0 0.00 0.00 0.00 56 1025.5
20260831132016 58 0 0.0 0.0 0.00 0.00 0.00 55 1025.5
20260831131541 58 0 0.0 0.0 0.00 0.00 0.00 55 1025.5
20260831131020 59 0 0.0 0.0 0.00 0.00 0.00 54 1025.6
20260831130519 59 0 0.0 2.0 0.00 0.00 0.00 55 1025.5
20260831130038 59 0 0.0 2.0 0.00 0.00 0.00 55 1025.5
20260831125520 59 46 0.0 2.0 0.00 0.00 0.00 55 1025.5
20260831125019 60 0 0.0 2.0 0.00 0.00 0.00 54 1025.4
20260831124544 60 0 0.0 3.0 0.00 0.00 0.00 54 1025.4
20260831124018 60 46 0.0 3.0 0.00 0.00 0.00 54 1025.5
20260831123518 60 46 1.0 4.0 0.00 0.00 0.00 54 1025.6
20260831123034 60 46 1.0 4.0 0.00 0.00 0.00 54 1025.7
20260831122518 60 46 2.0 4.0 0.00 0.00 0.00 54 1025.7
20260831122017 60 0 0.0 4.0 0.00 0.00 0.00 54 1025.6
20260831121535 60 46 1.0 4.0 0.00 0.00 0.00 54 1025.5
20260831121019 61 0 1.0 6.0 0.00 0.00 0.00 54 1025.4
20260831120519 61 0 1.0 6.0 0.00 0.00 0.00 54 1025.3
20260831120051 61 46 1.0 6.0 0.00 0.00 0.00 54 1025.5
20260831115524 61 49 1.0 5.0 0.00 0.00 0.00 54 1025.6
20260831115016 61 0 1.0 5.0 0.00 0.00 0.00 53 1025.6
20260831114534 61 50 2.0 6.0 0.00 0.00 0.00 53 1025.5
20260831114018 61 90 1.0 6.0 0.00 0.00 0.00 53 1025.5
20260831113516 61 88 2.0 6.0 0.00 0.00 0.00 53 1025.4
20260831113032 62 92 1.0 6.0 0.00 0.00 0.00 53 1025.3
20260831112515 62 92 1.0 7.0 0.00 0.00 0.00 53 1025.5
20260831112014 62 94 1.0 7.0 0.00 0.00 0.00 53 1025.6
20260831111535 62 92 1.0 7.0 0.00 0.00 0.00 53 1025.6
20260831111018 62 95 2.0 6.0 0.00 0.00 0.00 53 1025.6
20260831110518 62 96 1.0 6.0 0.00 0.00 0.00 53 1025.7
20260831110035 62 97 1.0 6.0 0.00 0.00 0.00 53 1025.8
20260831105518 62 96 1.0 7.0 0.00 0.00 0.00 53 1025.6
20260831105016 62 96 1.0 7.0 0.00 0.00 0.00 53 1025.9
20260831104531 62 0 1.0 6.0 0.00 0.00 0.00 53 1025.8
20260831104016 62 98 1.0 4.0 0.00 0.00 0.00 53 1025.9
20260831103517 62 97 0.0 3.0 0.00 0.00 0.00 53 1025.9
20260831103032 62 0 0.0 3.0 0.00 0.00 0.00 53 1025.9
20260831102520 62 93 0.0 4.0 0.00 0.00 0.00 53 1025.8
20260831102017 62 0 0.0 4.0 0.00 0.00 0.00 53 1026.0
20260831101533 62 95 1.0 4.0 0.00 0.00 0.00 53 1025.9
20260831101018 62 96 0.0 4.0 0.00 0.00 0.00 53 1026.1
20260831100522 63 91 2.0 4.0 0.00 0.00 0.00 53 1026.0
20260831100038 63 93 1.0 4.0 0.00 0.00 0.00 53 1026.2
20260831095516 63 94 0.0 4.0 0.00 0.00 0.00 53 1026.2
20260831095018 63 94 1.0 4.0 0.00 0.00 0.00 52 1026.4
20260831094539 63 0 0.0 2.0 0.00 0.00 0.00 52 1026.3
20260831094018 63 0 0.0 4.0 0.00 0.00 0.00 51 1026.4
20260831093518 63 96 0.0 4.0 0.00 0.00 0.00 51 1026.4
20260831093033 63 96 1.0 4.0 0.00 0.00 0.00 51 1026.2
20260831092519 63 96 1.0 3.0 0.00 0.00 0.00 50 1026.1
20260831092018 64 98 0.0 2.0 0.00 0.00 0.00 50 1026.2
20260831091543 64 0 0.0 0.0 0.00 0.00 0.00 49 1026.3
20260831091021 65 0 0.0 0.0 0.00 0.00 0.00 49 1026.1
20260831090519 65 0 0.0 0.0 0.00 0.00 0.00 48 1026.1
20260831090039 66 0 0.0 0.0 0.00 0.00 0.00 49 1026.2
20260831085521 66 0 0.0 0.0 0.00 0.00 0.00 48 1026.2
20260831085015 66 0 0.0 0.0 0.00 0.00 0.00 48 1026.3
20260831084535 67 0 0.0 0.0 0.00 0.00 0.00 48 1026.2
20260831084019 67 0 0.0 0.0 0.00 0.00 0.00 47 1026.2
20260831083520 68 0 0.0 0.0 0.00 0.00 0.00 47 1026.2
20260831083038 68 0 0.0 0.0 0.00 0.00 0.00 47 1026.3
20260831082516 68 0 0.0 2.0 0.00 0.00 0.00 46 1026.3
20260831082016 69 0 0.0 3.0 0.00 0.00 0.00 46 1026.3
20260831081534 69 0 0.0 3.0 0.00 0.00 0.00 45 1026.2
20260831081018 69 62 0.0 3.0 0.00 0.00 0.00 45 1026.3
20260831080516 70 61 0.0 5.0 0.00 0.00 0.00 44 1026.2
20260831080040 70 63 1.0 5.0 0.00 0.00 0.00 44 1026.3
20260831075520 70 75 2.0 4.0 0.00 0.00 0.00 44 1026.2
20260831075020 71 68 1.0 7.0 0.00 0.00 0.00 43 1026.1
20260831074536 71 67 2.0 7.0 0.00 0.00 0.00 43 1026.1
20260831074019 71 69 2.0 5.0 0.00 0.00 0.00 42 1026.0
20260831073517 71 70 2.0 5.0 0.00 0.00 0.00 42 1026.1
20260831073038 72 82 2.0 4.0 0.00 0.00 0.00 42 1026.2
20260831072516 72 83 1.0 8.0 0.00 0.00 0.00 42 1026.2
20260831072017 72 85 2.0 10.0 0.00 0.00 0.00 42 1026.2
20260831071542 72 44 3.0 10.0 0.00 0.00 0.00 42 1026.1
20260831071016 72 336 1.0 5.0 0.00 0.00 0.00 42 1026.2
20260831070519 73 355 1.0 5.0 0.00 0.00 0.00 42 1026.2
20260831070035 73 352 1.0 6.0 0.00 0.00 0.00 42 1026.4
20260831065520 73 355 2.0 6.0 0.00 0.00 0.00 40 1026.2
20260831065019 73 355 2.0 8.0 0.00 0.00 0.00 40 1026.5
20260831064531 73 350 2.0 8.0 0.00 0.00 0.00 42 1026.5
20260831064018 73 350 2.0 8.0 0.00 0.00 0.00 41 1026.6
20260831063518 73 350 3.0 8.0 0.00 0.00 0.00 41 1026.8
20260831063034 73 339 3.0 6.0 0.00 0.00 0.00 41 1026.8
20260831062518 73 336 3.0 6.0 0.00 0.00 0.00 41 1027.0
20260831062022 74 315 1.0 6.0 0.00 0.00 0.00 41 1027.0
20260831061535 74 346 3.0 8.0 0.00 0.00 0.00 41 1027.0
20260831061019 74 60 2.0 8.0 0.00 0.00 0.00 40 1027.2
20260831060517 74 57 3.0 10.0 0.00 0.00 0.00 37 1027.2
20260831060040 74 101 3.0 10.0 0.00 0.00 0.00 38 1027.1
20260831055521 74 53 3.0 10.0 0.00 0.00 0.00 36 1027.2
20260831055018 74 28 2.0 8.0 0.00 0.00 0.00 37 1027.2
20260831054535 74 348 3.0 8.0 0.00 0.00 0.00 37 1027.2
20260831054023 74 28 3.0 11.0 0.00 0.00 0.00 38 1027.3
20260831053516 74 351 2.0 11.0 0.00 0.00 0.00 38 1027.2
20260831053034 74 92 3.0 9.0 0.00 0.00 0.00 38 1027.3
20260831052521 74 150 3.0 9.0 0.00 0.00 0.00 37 1027.3
20260831052018 74 33 3.0 9.0 0.00 0.00 0.00 39 1027.4
20260831051550 74 38 3.0 7.0 0.00 0.00 0.00 39 1027.6
20260831051016 74 30 3.0 9.0 0.00 0.00 0.00 38 1027.5
20260831050519 74 63 3.0 9.0 0.00 0.00 0.00 37 1027.7
20260831050036 74 32 2.0 10.0 0.00 0.00 0.00 37 1027.8
20260831045519 74 355 3.0 10.0 0.00 0.00 0.00 37 1027.8
20260831045019 74 79 2.0 11.0 0.00 0.00 0.00 37 1027.8
20260831044537 74 85 4.0 11.0 0.00 0.00 0.00 36 1027.9
20260831044016 74 29 2.0 6.0 0.00 0.00 0.00 37 1027.9
20260831043518 74 27 2.0 8.0 0.00 0.00 0.00 37 1027.9
20260831043034 74 28 2.0 8.0 0.00 0.00 0.00 35 1028.1
20260831042519 74 29 4.0 9.0 0.00 0.00 0.00 35 1028.3
20260831042017 74 28 3.0 9.0 0.00 0.00 0.00 36 1028.4
20260831041534 75 22 3.0 10.0 0.00 0.00 0.00 36 1028.4
20260831041019 74 355 3.0 10.0 0.00 0.00 0.00 37 1028.3
20260831040518 74 360 4.0 10.0 0.00 0.00 0.00 37 1028.4
20260831040037 74 335 2.0 9.0 0.00 0.00 0.00 38 1028.5